Regional Weather Roundup
Issued by NWS

Home | Current Version | Previous Version | Text Only | Print | Product List | Glossary Off
Versions: 1 2 3 4 5 6 7 8 9 10 11 12 13 14 15 16 17 18 19 20 21 22 23 24 25 26 27 28 29 30 31 32 33 34 35 36 37 38 39 40 41 42 43 44 45 46 47 48 49 50

000
ASUS43 KLSX 300059
RWRMO

WEATHER SUMMARY FOR MISSOURI
NATIONAL WEATHER SERVICE SPRINGFIELD MO
800 PM CDT FRI MAY 29 2015

NOTE: "FAIR" INDICATES FEW OR NO CLOUDS BELOW 12,000 FEET WITH NO
       SIGNIFICANT WEATHER AND/OR OBSTRUCTIONS TO VISIBILITY.
       CURRENT SKY AND/OR WEATHER CONDITIONS ARE NOT AVAILABLE FOR
       CHILLICOTHE AND FARMINGTON.

MOZ001>031-035>038-043-044-053-054-300200-
...NORTHERN AND WESTERN MISSOURI...

CITY           SKY/WX    TMP DP  RH WIND       PRES   REMARKS
KANSAS CTY INT MOCLDY    67  65  93 S6        29.95R
KANSAS C DTWN  MOCLDY    70  63  78 S6        29.94S
LEE`S SUMMIT   CLOUDY    68  65  90 VRB3      29.95F
ST JOSEPH      MOCLDY    70  66  87 S6        29.94R
CHILLICOTHE      N/A     70  65  84 S3        29.96S
KIRKSVILLE     CLOUDY    70  66  87 SW7       29.97R

$$
MOZ066>068-077>081-088>096-101>105-300200-
...SOUTHWEST MISSOURI...

CITY           SKY/WX    TMP DP  RH WIND       PRES   REMARKS
SPRINGFIELD    HVY RAIN  68  65  90 CALM      29.97R FOG
JOPLIN         CLOUDY    65  63  93 SE9       29.94S

$$
MOZ032>034-039>042-045>050-055>058-069>072-300200-
...CENTRAL MISSOURI...

CITY           SKY/WX    TMP DP  RH WIND       PRES   REMARKS
COLUMBIA       LGT RAIN  69  66  90 S3        29.99R
JEFFERSON CITY RAIN      68  64  87 N3        29.97S FOG
ROLLA          TSTM      69  67  93 W9        29.99R FOG
SEDALIA        LGT RAIN  69  66  90 SE8       29.97F
WHITEMAN AFB   LGT RAIN  68  66  94 NW8       29.93F
OSAGE BEACH    CLOUDY    68  64  88 NE3       29.98R

$$
MOZ051-052-059>065-300200-
...EAST CENTRAL MISSOURI...

CITY           SKY/WX    TMP DP  RH WIND       PRES   REMARKS
ST LOUIS INTL  CLOUDY    77  69  76 S10       29.98S
SPIRIT OF STL  CLOUDY    75  71  87 SE5       29.96S
ST CHARLES     MOCLDY    78  67  68 CALM      29.96S

$$
MOZ072>076-082>087-097>100-106>115-300200-
...SOUTH CENTRAL AND SOUTHEAST MISSOURI...

CITY           SKY/WX    TMP DP  RH WIND       PRES   REMARKS
CAPE GIRARDEAU MOCLDY    79  69  71 S8        29.98R
FARMINGTON     MOCLDY    70  66  88 SE6       30.03R
POPLAR BLUFF   MOCLDY    78  69  73 S7        29.96R
WEST PLAINS    CLOUDY    70  66  87 CALM      29.98R

$$



USA.gov is the U.S. government's official web portal to all federal, state and local government web resources and services.